Bastrop, LA

1:06 PM CDT on October 01, 2016 (GMT -0500)
Bastrop

Weather History for KBQP - October, 2011

Change the Weather History Date:

Tuesday, October 25, 2011

  Actual Average (KMLU) Record (KMLU)
Temperature  
Mean Temperature 66 °F 63 °F  
Max Temperature 86 °F 76 °F 93 °F (1931)
Min Temperature 46 °F 50 °F 32 °F (1952)
Degree Days  
Heating Degree Days 0 4  
Month to date heating degree days 56  
Since 1 July heating degree days 62  
Cooling Degree Days 1 2  
Month to date cooling degree days 108  
Year to date cooling degree days 2472  
Growing Degree Days 16 (Base 50)    
Moisture  
Dew Point 46 °F    
Average Humidity 42    
Maximum Humidity 100    
Minimum Humidity 18    
Precipitation  
Precipitation 0.00 in 0.17 in 1.99 in (1996)
Month to date precipitation 3.89  
Year to date precipitation 43.00  
Snow  
Snow 0.00 in - - ()
Month to date snowfall  
Since 1 July snowfall  
Since 1 September snowfall  
Snow Depth -    
Sea Level Pressure  
Sea Level Pressure 30.16 in    
Wind  
Wind Speed 2 mph (SSE)    
Max Wind Speed 12 mph    
Max Gust Speed 17 mph    
Visibility 10 miles    
Events      
T = Trace of Precipitation, MM = Missing Value Source: NWS Daily Summary

Daily Weather History Graph

Daily Weather History Graph

Search for Another Location

Airport or City:

Trip Planner

Search our weather history database for the weather conditions in past years. The results will help you decide how hot, cold, wet, or windy it might be!

Date:

Astronomy

Oct. 25, 2011 Rise Set
Actual Time 7:19 AM CDT 6:23 PM CDT
Civil Twilight 6:54 AM CDT 6:48 PM CDT
Nautical Twilight 6:25 AM CDT 7:17 PM CDT
Astronomical Twilight 5:56 AM CDT 7:46 PM CDT
Moon 5:53 AM CDT (10/25) 5:25 PM CDT (10/25)
Length of Visible Light 11h 54m
Length of Day
11h 04m
Waning Crescent, 2% of the Moon is Illuminated
Oct 25
Waning Crescent
Oct 26
New
Nov 2
First Quarter
Nov 10
Full
Nov 18
Last Quarter

Hourly Weather History & Observations

Time (CDT) Temp. Dew Point Humidity Pressure Visibility Wind Dir Wind Speed Gust Speed Precip Events Conditions
12:15 AM 51.8 °F 50.0 °F 94% 30.21 in 10.0 mi Calm Calm - N/A   Clear
12:35 AM 51.8 °F - N/A% 30.21 in 10.0 mi Calm Calm - N/A   Clear
12:55 AM 51.8 °F - N/A% 30.20 in 10.0 mi Calm Calm - N/A   Clear
1:15 AM 51.8 °F - N/A% 30.20 in 10.0 mi Calm Calm - N/A   Clear
1:55 AM 50.0 °F - N/A% 30.20 in 10.0 mi Calm Calm - N/A   Clear
2:15 AM 51.8 °F - N/A% 30.20 in 10.0 mi Calm Calm - N/A   Clear
2:35 AM 51.8 °F - N/A% 30.20 in 10.0 mi Calm Calm - N/A   Clear
2:55 AM 51.8 °F - N/A% 30.19 in 10.0 mi Calm Calm - N/A   Clear
3:15 AM 51.8 °F - N/A% 30.19 in 10.0 mi Calm Calm - N/A   Clear
3:35 AM 53.6 °F - N/A% 30.19 in 10.0 mi Calm Calm - N/A   Clear
3:55 AM 51.8 °F - N/A% 30.19 in 10.0 mi Calm Calm - N/A   Clear
4:15 AM 53.6 °F - N/A% 30.18 in 10.0 mi ESE 3.5 mph - N/A   Clear
4:35 AM 53.6 °F 50.0 °F 88% 30.18 in 10.0 mi SSE 3.5 mph - N/A   Clear
4:55 AM 53.6 °F 50.0 °F 88% 30.18 in 10.0 mi Calm Calm - N/A   Clear
5:55 AM 53.6 °F 50.0 °F 88% 30.19 in 10.0 mi Calm Calm - N/A   Clear
6:15 AM 51.8 °F 48.2 °F 88% 30.20 in 10.0 mi Calm Calm - N/A   Clear
6:35 AM 50.0 °F - N/A% 30.20 in 10.0 mi Calm Calm - N/A   Clear
6:55 AM 50.0 °F - N/A% 30.21 in 10.0 mi Calm Calm - N/A   Clear
7:15 AM 48.2 °F - N/A% 30.21 in 10.0 mi Calm Calm - N/A   Clear
7:35 AM 46.4 °F - N/A% 30.22 in 10.0 mi Calm Calm - N/A   Clear
7:55 AM 48.2 °F - N/A% 30.22 in 10.0 mi Calm Calm - N/A   Clear
8:15 AM 50.0 °F - N/A% 30.22 in 10.0 mi Calm Calm - N/A   Clear
8:35 AM 53.6 °F - N/A% 30.22 in 10.0 mi Calm Calm - N/A   Clear
8:55 AM 59.0 °F 59.0 °F 100% 30.22 in 10.0 mi South 3.5 mph - N/A   Clear
9:15 AM 62.6 °F 55.4 °F 77% 30.22 in 10.0 mi SSE 4.6 mph - N/A   Clear
9:35 AM 64.4 °F 55.4 °F 73% 30.22 in 10.0 mi SSE 5.8 mph - N/A   Clear
9:55 AM 68.0 °F 53.6 °F 60% 30.22 in 10.0 mi SSE 3.5 mph - N/A   Clear
10:15 AM 69.8 °F 53.6 °F 56% 30.22 in 10.0 mi South 5.8 mph - N/A   Clear
10:35 AM 71.6 °F 53.6 °F 53% 30.22 in 10.0 mi South 6.9 mph - N/A   Clear
10:55 AM 73.4 °F 53.6 °F 50% 30.22 in 10.0 mi SSE 5.8 mph - N/A   Clear
11:15 AM 75.2 °F 51.8 °F 44% 30.21 in 10.0 mi South 5.8 mph - N/A   Clear
11:35 AM 77.0 °F 50.0 °F 39% 30.20 in 10.0 mi South 6.9 mph - N/A   Clear
11:55 AM 78.8 °F 48.2 °F 34% 30.20 in 10.0 mi SSE 5.8 mph - N/A   Clear
12:15 PM 80.6 °F 48.2 °F 32% 30.19 in 10.0 mi SSE 4.6 mph - N/A   Clear
12:35 PM 82.4 °F 46.4 °F 28% 30.17 in 10.0 mi SSE 3.5 mph - N/A   Clear
12:55 PM 82.4 °F 44.6 °F 26% 30.16 in 10.0 mi South 8.1 mph - N/A   Clear
1:15 PM 84.2 °F 42.8 °F 23% 30.15 in 10.0 mi SSW 9.2 mph - N/A   Clear
1:35 PM 86.0 °F 41.0 °F 20% 30.13 in 10.0 mi SSW 9.2 mph - N/A   Clear
1:55 PM 86.0 °F 41.0 °F 20% 30.12 in 10.0 mi South 6.9 mph - N/A   Clear
2:15 PM 86.0 °F 37.4 °F 18% 30.10 in 10.0 mi SSE 6.9 mph - N/A   Clear
2:35 PM 86.0 °F 37.4 °F 18% 30.09 in 10.0 mi SSE 9.2 mph 17.3 mph N/A   Clear
2:55 PM 86.0 °F 37.4 °F 18% 30.09 in 10.0 mi South 10.4 mph - N/A   Clear
3:15 PM 86.0 °F 39.2 °F 19% 30.07 in 10.0 mi South 5.8 mph 17.3 mph N/A   Clear
3:35 PM 86.0 °F 39.2 °F 19% 30.06 in 10.0 mi South 9.2 mph - N/A   Clear
3:55 PM 86.0 °F 37.4 °F 18% 30.06 in 10.0 mi SSE 11.5 mph - N/A   Clear
4:15 PM 86.0 °F 41.0 °F 20% 30.05 in 10.0 mi SSE 6.9 mph - N/A   Clear
4:35 PM 86.0 °F 41.0 °F 20% 30.05 in 10.0 mi South 11.5 mph 17.3 mph N/A   Clear
4:55 PM 86.0 °F 41.0 °F 20% 30.04 in 10.0 mi SSE 5.8 mph - N/A   Clear
5:15 PM 84.2 °F 39.2 °F 20% 30.05 in 10.0 mi South 6.9 mph - N/A   Clear
5:35 PM 82.4 °F 41.0 °F 23% 30.05 in 10.0 mi South 5.8 mph - N/A   Clear
5:55 PM 80.6 °F 41.0 °F 24% 30.04 in 10.0 mi South 4.6 mph - N/A   Clear
6:15 PM 78.8 °F 42.8 °F 28% 30.04 in 10.0 mi SE 3.5 mph - N/A   Clear
6:35 PM 77.0 °F 42.8 °F 29% 30.04 in 10.0 mi SE 3.5 mph - N/A   Clear
6:55 PM 75.2 °F 42.8 °F 31% 30.04 in 10.0 mi Calm Calm - N/A   Clear
7:15 PM 73.4 °F 42.8 °F 33% 30.04 in 10.0 mi SSE 4.6 mph - N/A   Clear
7:35 PM 73.4 °F 44.6 °F 36% 30.05 in 10.0 mi SSE 4.6 mph - N/A   Clear
7:55 PM 71.6 °F 44.6 °F 38% 30.05 in 10.0 mi Calm Calm - N/A   Clear
8:15 PM 71.6 °F 44.6 °F 38% 30.05 in 10.0 mi SSE 3.5 mph - N/A   Clear
8:35 PM 69.8 °F 46.4 °F 43% 30.04 in 10.0 mi South 4.6 mph - N/A   Clear
8:55 PM 69.8 °F 46.4 °F 43% 30.05 in 10.0 mi South 6.9 mph - N/A   Clear
9:15 PM 68.0 °F 48.2 °F 49% 30.05 in 10.0 mi South 5.8 mph - N/A   Clear
9:35 PM 68.0 °F 50.0 °F 52% 30.05 in 10.0 mi South 5.8 mph - N/A   Clear
9:55 PM 66.2 °F 50.0 °F 56% 30.05 in 10.0 mi South 4.6 mph - N/A   Clear
10:15 PM 68.0 °F 50.0 °F 52% 30.05 in 10.0 mi South 4.6 mph - N/A   Clear
10:35 PM 66.2 °F 51.8 °F 60% 30.05 in 10.0 mi South 4.6 mph - N/A   Clear
10:55 PM 66.2 °F 51.8 °F 60% 30.05 in 10.0 mi South 5.8 mph - N/A   Clear
11:15 PM 66.2 °F 53.6 °F 64% 30.04 in 10.0 mi South 5.8 mph - N/A   Clear
11:55 PM 64.4 °F 55.4 °F 73% 30.04 in 10.0 mi South 5.8 mph - N/A   Clear